Wind_Speed
13 14 15 16 17 18 19 20 20 19 19 18 18 18 18 18 17 17 17 17 17 18 18 18 18 18 18 18 18 18 18 19 19 20 20 21 21 22 22 23 24 24 25 26 26 27 28 29 30 31 32 33 33 34 34 34 34 35 35 35 35 35 34 34 35 35 35 35 35
13 15 16 17 18 19 20 20 19 19 18 18 18 18 18 17 17 17 17 17 17 18 18 17 17 17 17 17 17 18 19 19 20 21 22 22 23 24 24 25 26 26 27 28 29 30 30 31 32 34 35 36 36 37 37 37 37 37 38 37 37 36 36 36 36 35 35 35 35
14 16 17 18 19 19 19 19 18 18 17 17 17 17 17 17 17 17 17 17 17 17 17 17 17 17 17 17 18 19 20 21 22 23 23 24 25 25 26 27 28 29 29 30 31 32 33 34 35 37 38 39 39 40 40 40 40 40 40 40 39 38 37 37 37 36 36 36 35
15 16 17 18 18 18 18 17 17 17 17 17 17 17 17 17 17 17 18 17 17 17 17 17 17 17 18 19 20 20 21 22 23 23 24 25 26 26 27 28 29 30 31 32 33 34 35 37 38 39 40 41 42 42 42 42 42 42 42 42 41 39 38 38 37 37 36 36 36
16 17 17 18 18 17 17 17 16 16 16 16 17 17 17 17 17 17 17 17 17 17 17 17 18 19 19 20 21 22 22 22 23 24 25 26 26 27 28 29 30 32 33 34 35 37 38 39 40 41 42 43 43 43 43 43 43 43 42 42 41 40 38 37 37 36 36 36 36
17 17 17 17 17 17 16 16 16 16 16 16 16 16 16 16 16 17 17 17 17 17 18 18 19 20 21 21 22 22 23 23 23 24 25 26 28 29 30 31 32 34 35 37 38 39 41 42 42 43 43 44 44 44 43 43 42 41 41 41 40 39 38 37 36 36 36 36 36
16 17 16 16 16 16 16 16 16 16 16 16 16 16 16 16 16 16 17 17 18 18 19 20 21 21 22 22 23 23 24 24 25 26 27 28 30 31 33 34 35 37 38 40 41 42 43 43 43 43 43 43 43 42 42 41 40 39 39 39 39 38 37 36 36 36 36 36 37
16 15 15 15 15 15 15 15 16 16 16 16 16 16 16 16 16 17 18 18 19 20 21 21 22 23 23 24 24 25 25 26 27 28 30 31 33 34 36 38 39 40 41 42 43 43 43 43 42 42 41 41 41 40 40 39 38 37 37 38 38 37 36 36 36 36 36 37 38
15 15 15 15 15 15 15 15 15 15 15 15 15 16 16 17 17 18 19 20 21 22 22 23 23 24 24 25 26 27 28 29 30 32 33 35 36 38 40 41 42 43 44 44 44 43 42 41 41 40 39 39 38 38 38 37 36 36 37 37 37 37 36 36 36 36 36 37 38
14 14 14 14 14 15 15 15 15 15 15 16 16 17 17 18 19 20 21 22 23 23 24 24 25 26 26 27 28 29 31 32 34 35 37 38 40 41 42 43 43 44 44 44 43 41 40 39 39 38 38 37 36 36 36 36 35 36 36 36 37 37 37 36 36 36 36 37 38
13 13 14 14 14 15 15 15 16 16 16 17 18 18 19 20 21 22 23 23 24 25 25 26 27 28 29 30 31 32 34 35 37 39 40 41 42 43 43 43 43 43 43 42 41 39 38 37 37 37 36 36 35 35 35 35 35 36 36 36 36 37 37 36 36 35 36 37 37
13 13 14 14 14 15 15 16 16 17 18 19 19 20 21 21 22 23 24 25 26 26 27 28 29 30 31 33 34 36 37 38 40 41 42 43 43 43 43 43 43 42 41 40 39 38 37 36 36 36 35 35 35 35 35 35 35 36 36 36 36 37 37 37 36 35 36 37 37
13 13 14 14 15 15 16 17 18 18 19 20 21 21 22 23 24 25 26 27 28 29 30 31 32 33 34 36 37 39 40 41 42 42 43 43 43 43 43 42 41 40 39 39 37 36 36 35 35 35 35 35 35 34 34 34 35 35 36 36 36 36 37 37 36 36 37 37 38
13 13 14 15 16 17 17 18 19 20 21 21 22 23 24 25 26 27 28 29 30 31 32 33 34 36 37 38 39 41 41 42 42 43 43 43 42 42 41 41 40 39 38 37 36 35 35 35 34 34 34 35 35 34 34 34 34 35 36 36 37 37 37 37 37 38 38 39 39
13 14 15 16 17 18 19 20 20 21 22 23 24 25 26 27 28 29 30 31 32 33 34 36 37 38 39 40 41 41 42 42 42 42 42 42 41 41 40 39 39 38 37 37 36 35 34 34 34 34 34 35 35 35 35 34 34 35 35 36 37 37 38 38 38 38 39 39 39
14 15 16 17 18 19 20 21 22 23 24 25 25 26 27 28 29 30 31 33 34 35 36 37 39 40 40 41 41 41 41 41 41 41 40 40 40 40 39 39 38 37 37 36 36 35 34 34 34 34 34 35 35 35 35 35 35 36 36 36 37 38 38 38 38 38 38 38 39
15 16 17 18 19 20 20 22 23 24 25 26 27 28 29 30 31 32 33 34 36 37 38 39 40 41 41 41 41 40 40 40 40 40 39 39 39 39 39 38 37 37 36 35 35 35 34 34 34 33 34 34 35 35 35 36 36 36 37 37 37 37 37 37 37 37 37 38 38
16 17 18 18 19 20 21 22 23 24 25 27 28 29 30 31 32 33 34 36 37 38 39 40 40 40 40 40 40 39 39 39 39 39 39 39 39 38 38 37 37 36 35 35 35 34 34 34 34 33 34 34 35 35 35 36 36 36 36 36 36 36 36 36 36 36 37 37 38
17 17 18 19 20 21 22 23 24 25 27 28 29 30 31 32 34 35 36 37 38 39 39 40 40 39 39 39 38 38 38 38 38 39 39 38 38 38 37 37 36 35 35 34 34 34 34 33 33 33 34 34 34 35 35 35 35 35 35 36 36 36 36 36 36 37 37 38 38
17 18 19 20 21 22 23 24 26 27 28 29 30 32 33 34 35 36 37 38 38 39 39 39 39 38 38 38 38 38 38 38 38 38 38 38 37 37 36 36 35 34 34 34 33 33 33 33 33 33 33 34 34 35 35 35 35 35 35 36 36 36 37 37 38 38 38 38 39
18 19 20 21 22 23 25 26 27 28 30 31 32 33 35 36 37 37 38 38 38 38 37 37 37 38 38 38 38 38 38 38 38 38 37 37 36 36 35 35 34 34 34 33 33 33 33 33 33 33 34 34 34 34 35 35 35 36 36 37 37 38 38 38 38 39 39 39 39
19 20 21 22 24 25 26 28 29 30 32 33 34 35 36 37 37 37 37 37 37 37 36 37 37 37 38 38 38 38 38 38 37 37 36 36 35 35 34 34 34 34 34 33 33 33 33 33 34 34 34 35 35 35 35 36 36 37 38 38 38 39 39 39 39 39 39 39 39
20 21 23 24 25 27 28 30 31 32 33 35 36 36 37 37 37 37 37 36 36 36 36 37 37 37 38 38 38 38 38 38 37 36 35 35 35 34 34 34 34 34 34 34 34 34 34 35 35 35 35 35 35 36 36 37 37 38 39 39 39 39 39 39 39 39 39 40 40
22 23 24 26 27 28 30 31 33 34 35 36 37 37 37 37 36 36 36 36 36 36 37 37 37 38 38 38 38 37 37 37 37 36 36 35 35 34 34 34 34 35 35 35 35 35 35 36 36 36 35 35 35 36 36 37 37 38 38 38 39 39 39 39 39 39 39 39 39
23 24 26 27 29 30 32 33 34 35 36 36 37 36 36 36 36 36 36 36 36 37 37 37 38 38 38 38 38 37 37 36 36 36 36 36 35 35 35 35 36 36 36 36 36 36 36 35 35 35 35 35 35 36 36 36 36 37 37 38 38 38 39 39 39 38 38 38 38
25 26 27 29 30 32 33 34 35 36 36 36 36 36 36 36 36 36 36 37 37 37 37 38 38 38 38 38 38 37 36 36 36 36 36 36 36 36 36 36 37 37 37 37 37 37 36 35 34 33 33 34 35 35 36 36 36 36 36 37 37 38 38 38 38 38 38 38 38
26 28 29 31 32 33 34 35 36 36 36 36 35 35 35 35 36 36 36 37 37 37 38 38 38 38 38 38 37 37 37 36 36 36 36 37 37 38 38 38 38 38 38 38 38 38 37 35 34 33 33 33 34 34 35 36 36 36 36 37 37 37 37 37 37 38 38 38 38
28 29 31 32 33 34 35 35 36 35 35 35 35 35 35 35 36 36 36 37 37 38 38 38 38 38 37 37 37 37 37 36 37 37 37 37 38 38 39 39 39 39 39 39 38 37 36 35 34 33 32 32 33 33 34 35 36 36 37 37 37 37 36 36 37 37 37 38 38
29 31 32 33 34 35 35 35 35 35 34 34 34 35 35 35 35 36 36 37 37 37 38 38 37 37 37 37 37 37 37 37 37 37 38 38 39 39 39 39 39 39 39 39 39 38 36 35 33 33 32 32 32 33 34 35 36 36 37 37 37 36 36 36 37 37 37 38 39
31 32 33 34 35 35 35 35 34 34 34 34 34 34 34 34 35 35 36 36 36 37 37 37 37 37 37 37 37 37 37 38 38 38 38 39 39 39 40 40 40 40 40 39 39 38 36 34 33 33 33 32 33 33 34 35 36 36 37 36 36 36 36 37 37 37 37 38 39
31 33 34 34 35 34 34 34 33 33 33 33 33 33 33 34 34 35 35 35 36 36 36 36 36 36 36 36 37 37 38 38 38 39 39 39 40 40 40 40 40 40 40 39 39 37 35 34 33 33 33 33 33 34 34 35 36 36 37 37 36 36 36 36 36 37 37 37 38
32 33 34 34 34 34 33 33 32 32 32 32 32 32 33 33 34 34 34 34 35 35 35 35 36 36 37 37 37 38 38 38 39 39 39 39 40 40 41 41 41 40 40 39 38 36 35 34 34 34 34 33 34 34 34 35 35 35 36 36 36 35 35 36 36 36 36 37 38
32 33 33 33 33 32 32 31 31 31 31 31 32 32 33 33 33 33 33 33 34 34 35 35 36 36 37 37 38 38 38 39 39 39 39 39 40 40 41 41 41 40 39 39 37 36 35 34 34 34 34 34 34 34 34 34 34 34 35 35 35 35 35 35 36 36 37 38 38
32 32 32 32 31 31 31 31 31 31 31 32 32 32 32 32 33 33 33 33 33 34 34 35 35 36 36 37 38 38 39 39 39 39 40 40 40 40 40 41 40 40 39 38 37 36 35 34 34 34 34 34 33 33 33 34 34 34 34 35 35 35 35 35 36 36 37 37 36
31 31 31 30 30 30 30 30 31 31 31 32 32 32 32 32 32 33 33 33 33 34 34 35 35 36 36 37 37 38 39 39 39 39 39 39 40 40 40 40 40 39 39 38 37 36 35 34 34 33 33 33 33 33 33 33 33 34 35 35 36 36 36 36 36 36 35 34 33
30 30 29 30 30 30 30 30 31 31 31 31 32 32 32 32 32 32 32 33 34 34 35 35 35 36 36 37 37 38 38 39 39 39 39 39 39 39 40 40 40 39 39 38 37 36 35 34 33 33 33 32 32 32 33 33 34 35 36 36 36 36 36 36 35 34 33 31 31
28 28 28 29 29 30 30 30 31 31 31 31 31 32 32 32 32 32 32 33 34 34 35 35 35 36 37 37 38 38 38 38 39 39 39 39 39 39 40 40 40 39 39 38 37 35 34 34 33 32 31 31 31 31 32 33 35 36 36 36 36 36 35 34 33 32 31 31 32
27 27 28 29 29 30 30 30 31 31 31 31 31 31 31 32 32 32 32 33 33 34 35 35 36 36 37 37 38 38 38 38 38 39 39 39 38 39 39 40 40 39 39 38 37 36 34 33 32 30 29 29 29 31 32 34 35 36 36 36 36 35 34 33 31 31 31 32 33
27 27 28 28 29 30 30 30 30 30 31 31 31 31 31 32 32 32 32 32 33 34 35 35 36 36 36 37 38 38 39 39 38 38 39 39 38 38 38 39 39 39 38 37 36 35 34 32 30 29 28 28 29 31 33 34 35 36 35 35 35 34 33 31 31 32 33 34 32
26 27 27 28 29 29 30 30 30 30 30 30 31 31 31 31 32 32 32 32 32 33 34 35 36 36 36 37 38 39 39 39 39 39 38 38 38 38 38 38 38 38 38 37 36 34 33 31 29 28 28 28 30 31 32 33 34 34 34 34 34 34 32 31 32 34 35 33 29
26 27 27 28 28 29 29 29 30 30 30 30 30 30 31 31 31 32 32 32 32 33 33 34 35 36 36 37 38 39 40 40 40 39 39 38 38 38 37 37 38 38 37 35 34 33 31 29 28 28 28 29 30 31 31 31 32 33 33 33 33 32 33 34 35 36 33 29 27
Wind_Direction
300 304 307 311 313 315 317 317 317 317 317 318 318 319 319 319 320 319 318 317 316 315 314 314 313 313 314 315 317 318 319 321 322 323 324 324 324 324 324 323 323 322 321 321 320 320 319 319 319 318 317 317 317 317 316 317 317 317 316 315 314 312 310 307 304 303 302 300 298
301 305 309 312 314 315 316 317 317 317 317 318 319 319 320 320 319 318 317 316 315 314 314 313 314 315 316 318 320 322 324 325 325 326 326 326 325 325 324 323 322 322 321 320 320 319 319 318 318 317 316 315 315 315 314 314 315 315 315 314 314 313 311 309 307 306 304 302 300
302 306 309 312 313 315 315 315 316 316 317 318 319 320 320 319 318 317 316 315 314 314 314 314 316 318 320 322 323 324 325 326 326 325 325 324 324 323 322 322 321 320 320 319 319 318 318 317 317 316 315 314 314 313 313 313 313 313 313 312 312 311 310 309 308 307 305 303 301
303 306 309 311 312 313 313 314 314 315 316 317 318 318 318 317 316 315 314 314 314 314 315 316 318 320 321 323 324 324 325 325 324 323 322 322 321 321 320 320 319 319 318 318 318 317 317 317 316 315 315 314 313 313 312 312 311 311 310 310 310 309 309 307 307 305 304 302 300
303 306 308 309 311 311 312 313 313 314 314 315 316 316 316 315 314 313 313 313 313 314 315 317 319 320 321 322 322 322 322 322 321 320 319 319 319 318 318 318 318 317 317 317 317 317 317 316 316 315 314 313 313 312 312 312 311 310 309 309 308 308 307 306 305 304 302 300 299
303 305 307 309 310 311 312 312 312 313 313 314 314 315 314 314 313 313 312 312 313 314 315 316 318 320 320 320 320 319 319 318 317 317 316 316 317 317 317 316 316 316 316 316 316 316 316 316 315 314 314 313 313 312 312 311 311 310 309 308 307 307 307 306 304 303 301 299 297
302 304 307 308 309 310 310 311 311 312 313 314 315 316 316 315 315 314 313 313 314 315 316 317 318 319 319 318 318 317 317 316 316 315 315 315 316 316 316 316 316 315 316 316 316 316 316 316 315 314 313 313 312 312 311 311 310 309 308 308 307 307 306 305 304 302 300 299 297
302 304 306 307 308 308 309 310 311 312 314 316 318 319 319 319 318 317 316 316 316 317 318 318 318 318 318 317 317 316 316 316 315 315 315 315 315 315 315 315 315 315 316 316 316 316 316 316 315 314 313 313 312 312 311 311 310 309 308 307 307 306 305 304 303 302 301 299 298
302 304 305 307 308 309 310 312 313 316 318 321 323 324 324 323 322 321 320 319 319 319 319 319 318 318 317 316 316 316 315 315 315 315 315 315 315 315 315 315 316 316 316 316 317 317 316 316 315 314 313 312 312 311 311 311 310 309 307 307 306 305 305 304 303 302 301 300 299
302 304 306 308 309 311 313 316 318 321 324 326 327 328 327 326 324 323 322 321 321 321 320 319 318 317 316 315 315 315 315 315 315 315 315 315 315 316 316 316 317 317 317 317 317 317 316 315 314 313 313 312 312 311 310 310 309 308 306 306 305 305 304 303 303 302 301 301 300
304 306 309 311 313 315 318 322 324 327 329 330 330 329 328 326 325 323 322 322 321 320 319 318 317 316 315 314 314 314 314 315 315 315 315 316 316 316 317 317 317 317 317 317 317 317 316 315 314 313 313 312 311 310 309 309 308 306 305 305 304 304 303 303 303 303 302 302 302
308 310 313 315 318 321 324 327 329 330 331 330 329 328 327 325 324 323 322 321 319 318 318 317 316 315 315 315 315 315 315 315 316 316 316 316 317 317 317 317 317 318 318 318 318 317 316 315 314 313 312 312 310 309 308 308 307 306 305 304 304 304 303 303 304 304 304 304 303
312 314 317 320 323 326 329 331 331 331 330 329 328 326 325 324 323 322 320 319 318 317 317 317 316 316 316 316 316 316 316 316 316 316 317 317 317 317 318 318 318 318 318 318 318 317 316 315 314 313 312 311 310 309 308 307 306 306 305 305 305 304 304 305 305 305 305 305 304
316 318 322 325 327 330 331 332 331 330 329 328 326 325 324 323 322 321 320 319 318 318 317 317 317 316 316 316 316 316 316 317 317 317 317 317 317 318 318 318 318 318 318 318 318 317 315 314 313 312 311 310 309 309 308 308 307 306 306 306 306 306 306 306 306 306 305 304 303
320 323 325 328 330 331 332 331 330 329 328 326 325 324 323 322 321 321 320 319 318 318 318 317 317 316 316 316 317 317 317 317 317 317 318 318 318 319 319 319 319 319 319 318 317 316 315 314 313 312 311 310 310 309 309 309 308 308 307 307 307 306 306 306 306 305 304 304 303
324 327 328 330 331 331 331 330 329 328 327 325 324 323 322 322 321 320 320 319 318 318 317 317 317 317 316 317 317 317 318 318 318 318 319 319 319 320 320 320 320 320 319 318 317 316 314 313 313 312 311 310 310 310 310 310 309 309 308 307 307 306 306 305 305 304 303 303 302
328 329 330 330 330 330 329 328 327 326 325 324 323 322 322 321 321 320 319 319 318 318 317 317 317 317 317 317 318 318 319 319 319 320 320 321 321 321 321 321 320 320 319 318 317 316 315 314 313 312 311 311 310 310 310 310 309 309 308 307 306 305 305 304 304 303 303 302 301
329 329 329 329 329 328 327 326 325 324 324 323 322 321 321 320 320 319 319 318 318 318 318 317 317 318 318 319 319 319 320 321 321 321 321 321 322 321 321 321 320 320 319 318 317 316 315 315 314 313 312 311 311 310 310 309 309 308 307 307 306 306 305 304 303 303 302 301 301
328 328 327 327 326 326 325 324 323 322 322 321 321 321 320 320 319 319 318 318 318 318 318 318 318 319 319 320 321 321 322 322 322 322 322 322 322 321 321 321 320 320 319 318 317 316 316 315 315 314 313 312 311 310 310 309 309 309 308 308 307 306 305 304 304 303 302 301 301
326 326 325 324 324 323 322 322 321 321 321 321 320 320 320 319 319 319 318 318 318 319 319 320 320 321 321 322 322 323 323 323 323 323 322 322 322 322 321 321 320 320 319 318 318 317 317 316 315 315 314 313 312 312 311 311 310 310 309 309 308 306 305 304 304 303 302 302 302
324 323 323 322 322 321 321 321 321 321 320 320 320 320 319 319 319 319 319 319 319 320 320 321 322 323 323 324 324 324 323 323 323 323 322 322 322 322 322 321 321 320 320 319 319 319 318 317 317 316 315 314 314 313 313 313 312 311 310 308 307 306 305 304 304 303 303 302 302
321 321 320 320 320 320 320 320 320 320 320 320 320 319 319 319 319 319 319 320 321 322 322 323 324 325 325 325 325 324 324 323 323 323 322 322 322 322 322 322 321 321 321 320 320 320 320 319 318 318 317 316 315 315 314 313 311 310 308 307 306 305 304 304 303 303 303 303 302
319 319 319 319 320 320 320 320 320 320 320 319 319 319 319 319 319 320 321 321 323 324 325 326 326 326 326 326 325 325 324 324 323 323 323 323 323 323 323 323 322 322 321 322 322 322 321 321 320 319 318 317 315 313 312 310 309 307 306 306 305 304 304 304 303 303 303 302 302
317 318 319 319 319 320 320 320 320 319 319 319 319 319 320 320 321 322 323 324 325 326 327 327 327 327 327 326 325 324 324 324 324 324 324 323 323 323 323 323 322 322 322 322 322 322 322 321 319 318 316 314 312 310 308 307 306 306 305 304 304 304 303 303 302 302 302 302 302
317 318 318 319 319 319 319 319 319 319 319 320 320 321 321 322 323 324 325 326 327 328 328 328 328 327 326 325 324 324 324 324 324 324 324 324 324 324 323 323 322 322 322 322 322 322 321 320 317 315 312 310 308 307 306 306 305 304 303 303 302 302 302 301 301 301 301 301 301
317 318 318 319 319 319 319 319 319 320 320 321 321 322 323 324 325 326 327 328 328 329 328 328 327 326 325 324 324 324 324 324 324 324 324 324 323 323 323 322 322 322 322 322 322 321 320 318 315 312 310 308 307 306 306 305 304 304 303 302 301 301 301 301 301 300 300 300 300
317 318 318 318 318 319 319 319 320 321 322 322 324 324 325 326 327 328 328 329 329 328 327 326 325 325 324 324 324 324 324 324 324 324 323 323 322 322 322 322 321 321 321 321 321 320 318 316 313 311 309 308 307 307 306 305 305 303 302 302 301 301 300 300 300 300 300 300 299
317 318 318 318 318 319 320 321 322 323 324 325 326 326 327 327 328 328 328 328 327 326 325 324 324 323 323 323 324 324 324 324 324 323 323 322 321 321 321 320 320 320 320 320 319 318 316 314 312 310 309 308 307 307 306 305 304 303 302 301 300 300 300 300 300 300 299 299 299
318 318 318 319 319 320 321 322 324 325 326 327 327 327 328 328 327 327 326 325 324 324 323 323 323 323 323 323 324 324 324 324 323 323 322 321 321 320 320 319 319 319 319 318 317 316 315 313 312 310 309 309 307 306 305 303 302 302 301 300 300 300 300 299 299 299 299 299 300
318 318 319 319 320 322 323 325 326 327 328 328 328 327 327 326 325 324 323 323 322 322 322 322 322 322 323 323 324 324 323 323 323 322 321 320 319 319 319 318 318 317 317 317 317 316 315 313 311 310 309 309 307 306 304 303 302 301 301 300 300 299 299 299 299 299 300 300 301
318 319 320 321 322 324 326 327 328 329 328 328 326 325 324 323 322 321 321 321 321 321 321 322 322 322 323 323 323 323 323 323 322 322 321 319 318 318 317 317 317 316 316 316 316 315 314 312 311 310 309 308 307 306 304 303 302 301 300 300 299 299 299 300 300 300 301 301 302
319 320 321 323 325 326 327 328 329 328 327 325 324 322 321 320 320 320 320 320 321 321 321 322 322 322 323 323 323 323 322 322 321 321 320 318 317 317 316 316 315 315 316 316 316 315 313 312 310 310 309 309 308 306 305 303 302 301 300 300 300 300 300 301 301 301 301 302 301
320 322 324 325 327 328 328 328 327 326 324 322 321 320 320 320 320 321 321 321 322 321 321 322 322 322 322 323 322 322 322 321 320 320 319 318 317 316 315 315 315 315 315 316 315 314 313 312 311 310 310 309 308 306 305 303 302 301 301 300 301 301 301 301 301 301 301 301 301
323 325 326 327 328 328 327 326 325 323 322 321 320 320 320 321 321 321 322 322 322 322 321 322 322 322 322 322 321 321 320 320 320 319 318 317 316 315 315 315 315 315 316 316 315 314 313 312 311 311 310 309 308 307 305 304 303 302 301 301 301 301 301 301 301 301 301 301 301
325 327 328 328 327 326 325 324 323 322 321 320 320 321 322 322 322 322 322 323 322 322 321 322 322 322 322 322 321 320 320 319 318 318 317 317 316 315 315 315 315 316 316 316 315 314 313 312 311 311 310 310 308 306 305 304 303 302 301 301 301 301 301 302 302 301 301 301 302
327 328 327 326 325 324 323 322 321 321 321 321 321 322 322 323 323 323 323 323 322 321 321 322 322 322 322 321 321 320 319 318 318 317 317 317 316 315 315 315 316 316 317 317 316 314 313 312 311 311 310 309 308 306 305 304 302 302 301 301 301 302 303 303 302 302 301 302 303
328 328 326 324 323 322 322 321 321 321 321 321 322 322 323 323 323 323 323 323 322 321 321 322 322 321 321 321 320 320 319 319 318 317 317 316 316 316 315 315 316 316 317 317 316 315 313 312 311 311 311 309 307 306 304 303 302 301 302 302 303 304 304 304 303 302 302 303 304
328 326 324 322 322 321 321 321 321 321 321 322 322 323 323 323 323 323 323 323 322 321 321 321 321 321 321 321 320 319 319 319 318 317 316 316 316 316 315 315 315 316 316 317 316 315 313 312 312 311 310 308 307 305 304 303 302 303 304 304 305 305 304 303 302 302 303 304 305
326 325 323 321 321 321 321 321 321 321 322 322 322 323 323 323 322 323 323 323 322 321 320 320 320 320 321 320 320 319 319 320 319 318 317 317 317 316 316 314 314 315 316 316 315 314 313 312 311 310 309 308 306 305 304 304 304 305 305 306 306 305 303 301 301 303 304 305 305
325 323 322 321 321 321 321 321 321 322 322 322 322 322 322 322 322 322 323 322 322 321 320 319 319 320 321 321 320 319 319 320 320 320 319 318 317 317 316 314 314 314 314 315 314 314 313 312 310 310 309 308 306 306 306 306 306 306 306 307 306 304 302 301 303 305 305 305 306
324 323 321 321 321 321 320 321 321 322 322 322 322 322 322 322 322 322 322 322 321 321 320 320 320 321 321 321 320 320 320 320 321 321 320 319 318 317 316 315 314 313 313 314 313 313 311 310 309 309 308 308 307 307 307 307 307 307 307 307 306 304 303 305 306 305 304 305 311
Height
1553 1553 1553 1552 1552 1552 1552 1551 1551 1550 1550 1549 1549 1548 1547 1547 1546 1546 1545 1544 1543 1543 1542 1542 1541 1540 1540 1539 1538 1537 1537 1536 1536 1535 1534 1533 1532 1532 1531 1530 1529 1528 1527 1526 1525 1524 1523 1522 1521 1520 1518 1517 1516 1515 1514 1513 1512 1511 1509 1508 1507 1506 1504 1503 1502 1501 1501 1500 1499
1552 1552 1552 1552 1551 1551 1550 1550 1549 1549 1548 1547 1547 1547 1546 1545 1545 1544 1543 1543 1542 1542 1541 1540 1540 1539 1538 1537 1537 1536 1535 1535 1534 1533 1532 1532 1531 1530 1529 1528 1527 1526 1525 1524 1523 1522 1521 1520 1519 1517 1516 1515 1514 1513 1512 1511 1510 1508 1507 1506 1504 1503 1502 1501 1499 1498 1498 1497 1496
1552 1551 1551 1550 1550 1549 1549 1548 1548 1547 1547 1546 1546 1545 1545 1544 1543 1542 1542 1542 1541 1540 1539 1539 1538 1537 1537 1536 1535 1535 1534 1533 1532 1531 1530 1530 1529 1528 1527 1526 1525 1524 1523 1522 1521 1520 1519 1518 1517 1515 1514 1512 1511 1510 1509 1508 1507 1506 1504 1503 1502 1501 1499 1498 1497 1496 1495 1494 1493
1551 1550 1550 1549 1549 1548 1548 1547 1547 1546 1546 1545 1545 1544 1543 1543 1542 1541 1541 1540 1539 1539 1538 1537 1537 1536 1535 1534 1533 1532 1532 1531 1530 1529 1528 1527 1527 1526 1525 1524 1523 1522 1521 1520 1519 1518 1517 1516 1514 1513 1511 1510 1508 1507 1506 1505 1504 1503 1502 1500 1499 1498 1497 1495 1494 1493 1492 1491 1490
1549 1549 1549 1548 1548 1547 1547 1546 1546 1545 1545 1544 1544 1543 1542 1542 1541 1540 1539 1539 1538 1537 1537 1536 1535 1534 1533 1532 1532 1531 1530 1529 1528 1527 1526 1525 1524 1524 1523 1522 1521 1520 1519 1518 1517 1515 1514 1513 1511 1510 1508 1507 1506 1504 1503 1502 1501 1500 1498 1497 1496 1495 1494 1492 1491 1490 1489 1488 1487
1548 1548 1547 1547 1547 1546 1546 1545 1545 1544 1544 1543 1542 1542 1541 1540 1540 1539 1538 1537 1537 1536 1535 1534 1533 1532 1532 1531 1530 1529 1528 1527 1526 1525 1524 1523 1522 1521 1520 1519 1518 1517 1516 1515 1514 1513 1512 1510 1508 1507 1505 1504 1502 1501 1500 1499 1498 1496 1495 1493 1492 1492 1491 1489 1488 1487 1487 1485 1484
1547 1547 1547 1546 1546 1545 1545 1544 1543 1543 1542 1542 1541 1541 1540 1539 1538 1537 1537 1536 1535 1534 1534 1533 1532 1531 1530 1529 1528 1527 1526 1525 1524 1523 1522 1521 1520 1519 1518 1517 1516 1515 1514 1512 1511 1510 1508 1507 1505 1503 1502 1501 1499 1497 1497 1496 1495 1493 1491 1490 1489 1488 1488 1487 1486 1485 1484 1482 1481
1546 1546 1545 1545 1544 1544 1543 1543 1542 1542 1541 1541 1540 1539 1538 1537 1537 1536 1535 1534 1534 1533 1532 1531 1530 1529 1528 1527 1526 1525 1524 1523 1522 1522 1520 1519 1518 1517 1516 1515 1513 1512 1511 1510 1508 1507 1505 1504 1502 1500 1498 1497 1496 1494 1493 1493 1492 1490 1488 1487 1486 1485 1485 1484 1483 1482 1481 1480 1478
1545 1545 1544 1544 1543 1543 1542 1542 1541 1540 1540 1539 1538 1537 1537 1536 1535 1534 1533 1533 1532 1531 1530 1529 1528 1527 1527 1526 1525 1524 1523 1522 1520 1519 1518 1517 1516 1514 1513 1512 1510 1509 1507 1506 1505 1503 1502 1500 1499 1497 1496 1494 1493 1491 1490 1489 1488 1487 1485 1484 1483 1482 1481 1481 1480 1479 1478 1477 1476
1544 1543 1543 1542 1542 1541 1541 1540 1539 1539 1538 1537 1537 1536 1535 1534 1533 1532 1532 1531 1530 1529 1528 1527 1527 1526 1525 1524 1523 1522 1521 1519 1518 1517 1515 1514 1513 1512 1510 1508 1507 1506 1504 1503 1502 1500 1499 1497 1495 1494 1492 1492 1490 1488 1487 1487 1485 1484 1482 1481 1480 1479 1478 1477 1477 1476 1475 1474 1473
1542 1542 1542 1541 1540 1540 1539 1538 1538 1537 1536 1536 1535 1534 1533 1532 1532 1531 1530 1529 1528 1527 1527 1526 1525 1524 1523 1522 1521 1519 1518 1517 1516 1514 1512 1511 1510 1508 1507 1505 1504 1502 1501 1500 1498 1497 1495 1494 1492 1491 1489 1488 1487 1486 1485 1483 1482 1481 1480 1478 1477 1476 1475 1474 1474 1473 1472 1471 1470
1541 1541 1540 1539 1539 1538 1537 1537 1536 1535 1534 1534 1533 1532 1532 1531 1530 1529 1528 1527 1527 1526 1525 1524 1523 1522 1521 1519 1518 1517 1516 1514 1513 1511 1510 1508 1507 1505 1504 1502 1501 1499 1498 1497 1495 1494 1492 1491 1489 1487 1486 1485 1484 1483 1482 1481 1480 1478 1477 1475 1474 1473 1472 1471 1471 1470 1469 1468 1467
1540 1539 1538 1538 1537 1537 1536 1535 1534 1533 1533 1532 1532 1531 1530 1529 1528 1527 1527 1526 1525 1524 1523 1522 1521 1520 1518 1517 1516 1514 1513 1511 1510 1508 1507 1505 1504 1502 1501 1499 1498 1496 1495 1493 1492 1491 1489 1488 1487 1485 1483 1482 1481 1480 1479 1478 1477 1475 1474 1472 1472 1471 1469 1468 1468 1467 1466 1465 1464
1538 1537 1537 1536 1535 1535 1534 1533 1532 1532 1531 1531 1530 1529 1528 1528 1527 1526 1525 1524 1523 1522 1521 1520 1518 1517 1516 1515 1513 1512 1510 1508 1507 1505 1504 1502 1501 1499 1498 1496 1495 1493 1492 1491 1489 1488 1487 1485 1484 1482 1481 1479 1478 1477 1476 1475 1474 1473 1471 1470 1469 1467 1467 1466 1465 1464 1463 1462 1461
1536 1536 1535 1534 1534 1533 1532 1532 1531 1530 1530 1529 1528 1528 1527 1526 1525 1524 1523 1522 1521 1520 1518 1517 1516 1515 1514 1512 1511 1509 1507 1506 1504 1502 1501 1499 1498 1496 1495 1493 1492 1490 1489 1487 1486 1485 1484 1482 1481 1480 1478 1477 1475 1474 1473 1472 1471 1470 1469 1467 1466 1465 1464 1463 1462 1461 1460 1459 1458
1535 1534 1533 1533 1532 1532 1531 1530 1530 1529 1528 1527 1527 1526 1525 1524 1523 1522 1521 1520 1518 1517 1516 1515 1513 1512 1511 1509 1508 1506 1504 1503 1501 1500 1498 1496 1495 1493 1492 1490 1489 1487 1486 1485 1483 1482 1481 1480 1478 1477 1476 1474 1472 1471 1470 1469 1468 1467 1466 1465 1463 1462 1461 1460 1459 1458 1457 1456 1455
1533 1532 1532 1531 1531 1530 1529 1529 1528 1527 1527 1526 1525 1524 1523 1522 1521 1520 1519 1518 1516 1515 1513 1512 1511 1509 1508 1506 1505 1503 1502 1500 1498 1497 1495 1493 1492 1491 1489 1487 1486 1485 1483 1482 1480 1479 1478 1477 1476 1474 1473 1472 1470 1468 1467 1466 1465 1464 1463 1462 1461 1460 1459 1457 1457 1456 1455 1453 1452
1531 1531 1530 1530 1529 1528 1528 1527 1526 1526 1525 1524 1523 1522 1521 1520 1519 1518 1517 1516 1514 1512 1511 1509 1508 1507 1505 1503 1502 1501 1499 1497 1496 1494 1492 1491 1489 1488 1487 1485 1483 1482 1481 1479 1478 1476 1475 1474 1472 1471 1470 1469 1467 1466 1465 1464 1462 1461 1460 1459 1458 1457 1456 1455 1454 1453 1452 1451 1449
1530 1529 1529 1528 1527 1527 1526 1526 1525 1524 1523 1522 1521 1520 1519 1518 1517 1516 1514 1513 1512 1510 1508 1507 1505 1504 1502 1501 1499 1498 1496 1495 1493 1491 1490 1488 1487 1485 1484 1482 1481 1480 1478 1477 1475 1474 1472 1471 1470 1469 1467 1466 1465 1463 1462 1461 1460 1458 1457 1456 1455 1454 1453 1452 1451 1450 1449 1448 1447
1528 1528 1527 1527 1526 1525 1525 1524 1523 1522 1521 1520 1519 1518 1517 1516 1515 1513 1512 1511 1509 1508 1506 1504 1502 1501 1499 1498 1497 1495 1493 1492 1491 1489 1487 1486 1484 1483 1482 1480 1478 1477 1476 1474 1473 1472 1470 1469 1467 1466 1465 1463 1462 1460 1459 1458 1457 1456 1454 1453 1452 1451 1450 1449 1448 1447 1446 1445 1444
1527 1526 1526 1525 1524 1524 1523 1522 1521 1520 1519 1518 1517 1516 1515 1514 1512 1511 1510 1508 1507 1505 1503 1502 1500 1498 1497 1495 1494 1492 1491 1489 1488 1487 1485 1483 1482 1481 1479 1478 1476 1475 1473 1472 1471 1469 1468 1466 1465 1463 1462 1461 1459 1458 1456 1455 1454 1452 1451 1450 1449 1448 1447 1446 1445 1444 1443 1442 1441
1525 1525 1524 1523 1523 1522 1521 1520 1519 1518 1517 1516 1515 1514 1512 1511 1510 1508 1507 1506 1504 1502 1501 1499 1497 1496 1494 1493 1491 1490 1488 1487 1486 1484 1483 1481 1480 1478 1477 1476 1474 1472 1471 1469 1468 1467 1465 1464 1462 1461 1459 1457 1456 1455 1454 1452 1451 1450 1448 1447 1446 1445 1444 1443 1442 1441 1440 1439 1438
1524 1523 1522 1522 1521 1520 1519 1518 1517 1516 1515 1514 1513 1512 1510 1509 1507 1506 1504 1503 1502 1500 1498 1497 1495 1493 1492 1491 1489 1487 1486 1484 1483 1482 1480 1479 1477 1476 1474 1473 1472 1470 1468 1467 1466 1464 1462 1461 1459 1458 1457 1455 1454 1452 1451 1450 1449 1447 1446 1444 1443 1442 1441 1440 1439 1438 1437 1436 1435
1522 1522 1521 1520 1519 1518 1517 1516 1515 1514 1513 1512 1510 1509 1507 1506 1505 1503 1502 1500 1499 1497 1496 1494 1493 1491 1490 1488 1487 1485 1484 1482 1480 1478 1477 1476 1475 1473 1472 1471 1469 1467 1466 1465 1463 1462 1461 1459 1457 1455 1454 1453 1452 1451 1449 1448 1447 1445 1444 1442 1441 1439 1438 1437 1437 1436 1435 1433 1432
1521 1520 1519 1518 1517 1516 1515 1514 1513 1512 1511 1509 1508 1507 1505 1503 1502 1501 1499 1497 1496 1495 1493 1492 1490 1489 1487 1486 1484 1483 1482 1480 1478 1476 1475 1473 1472 1471 1470 1468 1467 1465 1464 1462 1461 1460 1459 1457 1456 1454 1452 1451 1450 1449 1447 1446 1445 1443 1442 1440 1439 1437 1436 1435 1434 1433 1432 1431 1430
1519 1518 1517 1516 1515 1514 1513 1512 1511 1510 1508 1507 1505 1504 1502 1501 1499 1498 1497 1495 1493 1492 1491 1490 1488 1487 1485 1483 1482 1480 1479 1477 1476 1474 1472 1471 1469 1468 1467 1466 1464 1462 1461 1460 1459 1457 1456 1455 1454 1453 1452 1450 1448 1447 1445 1443 1442 1441 1439 1438 1437 1435 1434 1432 1431 1430 1429 1429 1427
1517 1516 1515 1514 1513 1512 1511 1510 1509 1507 1506 1504 1503 1501 1500 1498 1497 1496 1494 1492 1491 1490 1489 1487 1486 1484 1483 1481 1480 1478 1477 1475 1474 1472 1470 1469 1467 1466 1464 1463 1462 1460 1459 1457 1457 1455 1454 1453 1452 1451 1450 1448 1446 1444 1442 1441 1439 1438 1437 1435 1434 1433 1432 1430 1429 1427 1427 1426 1425
1515 1514 1513 1512 1511 1510 1509 1507 1506 1505 1503 1502 1500 1499 1497 1496 1495 1493 1492 1490 1489 1488 1487 1485 1484 1482 1481 1479 1477 1476 1474 1473 1471 1470 1468 1467 1465 1463 1462 1460 1459 1457 1457 1455 1454 1453 1452 1451 1450 1448 1447 1446 1444 1442 1441 1439 1437 1435 1434 1433 1431 1430 1429 1428 1427 1425 1424 1423 1422
1513 1512 1511 1510 1509 1508 1507 1505 1504 1502 1501 1499 1498 1497 1495 1494 1492 1491 1490 1488 1487 1486 1484 1483 1482 1480 1478 1477 1475 1473 1472 1471 1469 1467 1466 1464 1462 1461 1459 1458 1457 1455 1454 1453 1452 1451 1449 1448 1447 1446 1445 1444 1442 1440 1438 1437 1435 1433 1431 1430 1429 1428 1427 1425 1424 1423 1422 1420 1419
1511 1510 1509 1508 1507 1505 1504 1503 1501 1500 1498 1497 1496 1494 1493 1492 1490 1489 1488 1487 1485 1484 1483 1481 1479 1478 1476 1475 1473 1471 1470 1468 1467 1465 1463 1462 1460 1458 1457 1456 1454 1453 1452 1451 1449 1448 1447 1446 1445 1444 1442 1441 1440 1438 1436 1434 1432 1431 1429 1427 1426 1425 1424 1423 1422 1421 1419 1418 1417
1509 1508 1507 1505 1504 1503 1502 1500 1499 1497 1496 1495 1493 1492 1491 1490 1489 1487 1486 1485 1483 1482 1481 1479 1477 1476 1474 1472 1471 1469 1467 1466 1464 1463 1461 1460 1458 1456 1454 1453 1452 1450 1449 1448 1447 1446 1445 1444 1442 1441 1440 1438 1437 1435 1433 1432 1430 1428 1427 1425 1423 1422 1422 1420 1419 1418 1417 1416 1414
1507 1506 1504 1503 1502 1500 1499 1498 1497 1495 1494 1493 1492 1491 1489 1488 1487 1486 1484 1483 1482 1480 1478 1477 1475 1473 1472 1470 1468 1467 1465 1463 1462 1460 1459 1457 1456 1454 1452 1451 1449 1448 1447 1446 1445 1444 1442 1441 1440 1438 1437 1436 1434 1432 1431 1429 1427 1426 1424 1422 1421 1420 1419 1418 1417 1416 1414 1413 1412
1505 1503 1502 1501 1499 1498 1497 1496 1495 1493 1492 1491 1490 1489 1487 1486 1485 1484 1482 1481 1480 1478 1476 1474 1473 1471 1469 1467 1466 1464 1462 1461 1460 1458 1457 1455 1454 1452 1450 1448 1447 1446 1445 1444 1442 1441 1440 1439 1437 1436 1434 1433 1432 1430 1428 1426 1424 1423 1421 1420 1418 1418 1417 1416 1414 1413 1412 1411 1410
1502 1501 1500 1498 1497 1496 1495 1494 1493 1492 1490 1489 1488 1487 1486 1484 1483 1482 1480 1479 1477 1476 1474 1472 1471 1469 1467 1466 1464 1462 1460 1459 1457 1456 1454 1453 1451 1450 1448 1446 1444 1443 1442 1442 1440 1439 1437 1436 1435 1433 1432 1431 1429 1427 1425 1423 1422 1420 1419 1417 1416 1415 1414 1413 1412 1411 1409 1408 1407
1500 1499 1497 1497 1495 1494 1493 1492 1491 1490 1488 1487 1486 1485 1484 1482 1481 1479 1478 1477 1475 1473 1472 1470 1469 1467 1466 1464 1462 1461 1459 1457 1455 1453 1452 1451 1449 1447 1445 1443 1442 1441 1440 1439 1438 1437 1435 1434 1432 1431 1430 1428 1426 1424 1422 1421 1419 1417 1416 1415 1414 1412 1412 1411 1409 1408 1407 1406 1405
1498 1497 1496 1494 1493 1492 1491 1490 1489 1488 1487 1485 1484 1483 1482 1480 1479 1477 1476 1474 1473 1471 1469 1468 1467 1465 1463 1462 1460 1458 1457 1455 1453 1451 1450 1448 1447 1445 1443 1441 1439 1438 1437 1437 1435 1434 1433 1432 1430 1429 1427 1426 1424 1422 1420 1419 1417 1415 1414 1412 1411 1410 1409 1408 1407 1405 1404 1403 1402
1496 1495 1494 1492 1492 1490 1489 1488 1487 1486 1484 1483 1482 1481 1479 1478 1477 1475 1474 1472 1471 1469 1467 1466 1464 1462 1461 1459 1457 1456 1454 1453 1451 1449 1447 1446 1445 1443 1441 1438 1437 1435 1435 1434 1433 1432 1431 1429 1428 1427 1425 1424 1422 1420 1418 1416 1414 1413 1411 1410 1408 1407 1406 1405 1404 1402 1402 1401 1400
1494 1493 1492 1491 1490 1488 1487 1486 1485 1484 1482 1481 1480 1479 1477 1476 1474 1473 1472 1470 1469 1467 1465 1463 1462 1461 1459 1457 1455 1453 1452 1451 1449 1447 1446 1444 1442 1441 1439 1436 1434 1433 1432 1431 1430 1429 1428 1427 1426 1425 1423 1422 1420 1418 1416 1414 1412 1410 1409 1407 1406 1404 1403 1402 1401 1400 1399 1398 1397
1492 1492 1490 1489 1488 1487 1485 1484 1483 1482 1480 1479 1478 1477 1475 1474 1472 1471 1470 1468 1467 1465 1463 1462 1460 1458 1457 1455 1453 1451 1449 1448 1447 1445 1443 1442 1440 1439 1437 1435 1432 1431 1430 1429 1428 1427 1426 1425 1424 1422 1422 1420 1418 1416 1414 1412 1410 1408 1407 1405 1403 1402 1401 1400 1399 1398 1397 1396 1395
1491 1490 1488 1487 1486 1485 1483 1482 1481 1480 1479 1477 1476 1474 1473 1472 1470 1469 1468 1467 1465 1463 1462 1460 1458 1456 1455 1453 1451 1449 1447 1445 1444 1442 1441 1439 1438 1436 1435 1433 1430 1429 1427 1427 1426 1424 1423 1422 1422 1421 1419 1418 1416 1414 1412 1410 1408 1406 1404 1403 1402 1400 1398 1397 1397 1395 1394 1393 1393
1489 1488 1487 1485 1484 1483 1482 1480 1479 1478 1477 1475 1474 1473 1471 1470 1468 1467 1466 1464 1463 1462 1460 1458 1456 1454 1452 1451 1449 1447 1444 1442 1441 1440 1438 1437 1435 1434 1432 1431 1428 1427 1425 1425 1423 1422 1421 1420 1419 1418 1417 1415 1413 1412 1410 1408 1406 1404 1402 1401 1400 1398 1397 1395 1393 1393 1392 1392 1391